Погода в Сальске

Россия / Ростовская область     46°28′31″N   41°32′29″E
темп.,
°C
ветер,
м/с
пор.,
м/с
влажн.,
%
обл.,
%
осадки,
мм/ч
давл.,
гПа
погр.,
м
1 августа, вс
вс100:00+25св22314 0.0 101017
03:00+24всв22324 0.0 101012
06:00+24юв00354 0.0 101011
09:00+32юв22251 0.0 1011546
12:00+36вюв33183 0.0 10103373
15:00+37всв33169 0.0 10093756
18:00+36в541936 0.0 10091521
21:00+29в33245 0.0 100929
2 августа, пн
пн200:00+27вюв222715 0.0 101013
03:00+25св11300 0.0 101011
06:00+26св11330 0.0 101111
09:00+33в33240 0.0 1011510
12:00+37в44200 0.0 10103373
15:00+38всв43183 0.0 10083772
18:00+37всв43190 0.0 10082027
21:00+30юв23310 0.0 100915
3 августа, вт
вт300:00+28вюв22300 0.0 100814
03:00+26юз22330 0.0 100911
06:00+27ююз22350 0.0 101013
09:00+33ю22265 0.0 1010576
12:00+38ююз22200 0.0 10093188
15:00+40ссз13165 0.0 10074000
18:00+38вюв1317100 0.0 10073196
21:00+32сз5112637 0.0 1009342
4 августа, ср
ср400:00+30сз41036100 0.0 1010377
03:00+26сз510485 0.0 1011253
06:00+25ссз496490 0.0 1013298
09:00+29с3448100 0.0 1013627
12:00+34ссз44335 0.0 10131863
15:00+36ссз4527100 0.0 10123063
18:00+33ссв34313 0.5 1012997
21:00+27ссв494128 0.6 1014187
5 августа, чт
чт500:00+23с474923 0.4 1015122
03:00+20с3776100 1.6 1016143
06:00+21св237010 0.6 1016122
09:00+27ссв33480 0.6 1017719
12:00+32св44275 0.0 10152095
15:00+34св44211 0.0 10142578
18:00+32св65220 0.0 10131566
21:00+26ссв49300 0.0 1014139